Weather Roundup
Issued by NWS

Home | Current Version | Previous Version | Graphics & Text | Print | Product List | Glossary Off
Versions: 1 2 3 4 5 6 7 8 9 10 11 12 13 14 15 16 17 18 19 20 21 22 23 24 25 26 27 28 29 30 31 32 33 34 35 36 37 38 39 40 41 42 43 44 45 46 47 48 49 50

000
NZUS93 KARX 030059
HRRWXR

CURRENT HOURLY OBSERVATIONS ACROSS
MUCH OF THE UPPER MISSISSIPPI VALLEY
NATIONAL WEATHER SERVICE LA CROSSE WI
800 PM CDT THU JUL 02 2015


...SOUTHEAST MINNESOTA...


CITY           SKY/WX    TMP DP  RH WIND       PRES   REMARKS
ROCHESTER      PTCLDY    66  54  65 SE5       30.00S
ROCHESTER/MAYO FAIR      71  52  51 SE5       29.99S
WINONA         PTCLDY    70  55  60 CALM      29.98S
AUSTIN         PTCLDY    72  57  60 CALM      29.99S
ALBERT LEA     PTCLDY    72  54  53 S2        29.99S
DODGE CENTER   PTCLDY    70  63  78 CALM      29.99S
PRESTON        PTCLDY    68  54  61 CALM      30.00S
OWATONNA       PTCLDY    70  55  60 CALM      29.99R
FARIBAULT      PTCLDY    72  57  60 CALM      29.98F
$$

...ELSEWHERE IN MINNESOTA...


CITY           SKY/WX    TMP DP  RH WIND       PRES   REMARKS
MINNEAPOLIS    MOCLDY    74  52  46 SW6       29.97F
INTNL FALLS    PTSUNNY   71  57  61 SW8       29.89F
DULUTH         MOCLDY    72  57  59 SW8       29.95S
RED WING       PTCLDY    73  57  56 CALM      29.96F
REDWOOD FALLS  PTCLDY    73  53  49 CALM      29.97F
MANKATO        MOCLDY    72  55  56 CALM      29.98S
WORTHINGTON    MOCLDY    66  48  52 SE5       29.99F
FAIRMONT       PTCLDY    66  43  42 S6        29.98S
$$

...SOUTHWEST WISCONSIN...


CITY           SKY/WX    TMP DP  RH WIND       PRES   REMARKS
LA CROSSE      PTCLDY    72  54  53 SE5       29.97S
PRAIRIE DU CHI MOCLDY    68  52  55 CALM      29.98S
BOSCOBEL       MOCLDY    67  58  72 CALM      29.98F
LONE ROCK      NOT AVBL
PLATTEVILLE    MOCLDY    67  51  57 E3        29.99S
FORT MC COY    CLEAR     71  48  45 SE3       30.00R
VIROQUA        FAIR      68  53  58 SE6       30.00S
WIS DELLS      CLEAR     68  51  54 CALM      29.99S
$$

...ELSEWHERE IN WISCONSIN...


CITY           SKY/WX    TMP DP  RH WIND       PRES   REMARKS
MILWAUKEE      MOCLDY    58  47  66 N9        30.00F
MADISON        MOCLDY    66  49  54 NE5       29.98S
GREEN BAY      CLEAR     68  51  54 CALM      30.01F
EAU CLAIRE     NOT AVBL
BLACK RVR FLS  FAIR      70  52  53 CALM      29.99R
MEDFORD        CLEAR     69  54  58 S5        30.01F
WAUSAU         CLEAR     70  50  49 S8        29.99F
WIS RAPIDS     CLEAR     69  48  47 SE5       30.01F
MARSHFIELD     CLEAR     69  50  50 SE5       30.00F
RICE LAKE      CLEAR     72  54  54 CALM      30.00F
$$

...NORTHEAST IOWA...


CITY           SKY/WX    TMP DP  RH WIND       PRES   REMARKS
DECORAH          N/A    N/A N/A N/A MISG        N/A
MASON CITY     PTCLDY    67  57  70 SE6       30.00S
CHARLES CITY   MOCLDY    68  57  68 SE5       29.99F
OELWEIN        CLOUDY    68  57  68 E3        29.99S
$$

...ELSEWHERE IN IOWA...


CITY           SKY/WX    TMP DP  RH WIND       PRES   REMARKS
DES MOINES     CLOUDY    68  53  58 E5        29.95F
IOWA CITY      CLOUDY    67  54  63 NE7       29.98R
FORT DODGE     MOCLDY    64  54  68 CALM      30.00R
$$

...NORTHERN ILLINOIS...


CITY           SKY/WX    TMP DP  RH WIND       PRES   REMARKS
CHICAGO-OHARE  MOCLDY    61  49  64 NE10      29.98R
CHICAGO-MIDWAY CLOUDY    64  53  67 NE10      29.97R
MOLINE         CLOUDY    69  56  62 NE8       29.95S
ROCKFORD       CLOUDY    68  53  58 E7        29.98S
PEORIA         CLOUDY    72  57  59 N5        29.93S
$$

NOTE: "FAIR" INDICATES FEW OR NO CLOUDS BELOW 12,000 FEET WITH NO
SIGNIFICANT WEATHER AND/OR OBSTRUCTIONS TO VISIBILITY. WIND
SPEEDS ARE IN MILES-PER-HOUR.



USA.gov is the U.S. government's official web portal to all federal, state and local government web resources and services.